Regional Weather Roundup
Issued by NWS

Home | Current Version | Previous Version | Graphics & Text | Print | Product List | Glossary On
Versions: 1 2 3 4 5 6 7 8 9 10 11 12 13 14 15 16 17 18 19 20 21 22 23 24 25 26 27 28 29 30 31 32 33 34 35 36 37 38 39 40 41 42 43 44 45 46 47 48 49 50
000
ASUS43 KOAX 270610
RWRNE

WEATHER ROUNDUP FOR NEBRASKA
NATIONAL WEATHER SERVICE OMAHA NE
100 AM CDT SAT MAY 27 2017

NOTES: SATELLITE DATA IS BEING USED TO AUGMENT CLOUD COVER ABOVE
       12000 FEET.
       "FAIR" INDICATES FEW OR NO CLOUDS BELOW 12,000 FEET WITH NO
       SIGNIFICANT WEATHER AND/OR OBSTRUCTIONS TO VISIBILITY.

  * THESE STATIONS DO NOT REPORT WEATHER SUCH AS RAIN...SNOW OR FOG.

NEZ001>004-019>022-054>056-270700-
NEBRASKA PANHANDLE

CITY           SKY/WX    TMP DP  RH WIND       PRES   REMARKS
SCOTTSBLUFF    CLOUDY    50  46  86 CALM      29.99F
6HR MIN TEMP:  50; 6HR MAX TEMP:  59; 6HR PCP:  0.50;

ALLIANCE       CLOUDY    50  49  96 N9        29.99R
6HR MIN TEMP:  49; 6HR MAX TEMP:  57; 6HR PCP:  0.59;

CHADRON        CLOUDY    51  47  86 VRB6      29.97F
6HR MIN TEMP:  50; 6HR MAX TEMP:  57; 6HR PCP:  0.17;

SIDNEY         CLOUDY    51  50  96 N14       29.97F
6HR MIN TEMP:  51; 6HR MAX TEMP:  63; 6HR PCP:  0.24;

$$

NEZ057>060-069>072-079>082-270700-
SOUTHWEST NEBRASKA

CITY           SKY/WX    TMP DP  RH WIND       PRES   REMARKS
NORTH PLATTE   LGT RAIN  62  55  77 S16G22    29.92R
6HR MIN TEMP:  59; 6HR MAX TEMP:  71; 6HR PCP:  0.01;

IMPERIAL       CLOUDY    57  49  74 S12G24    29.90R
6HR MIN TEMP:  56; 6HR MAX TEMP:  67; 6HR PCP:  0.06;

MCCOOK         RAIN      59  55  87 W5        29.95S FOG
6HR MIN TEMP:  59; 6HR MAX TEMP:  74; 6HR PCP:  0.43;

$$

NEZ005>010-023>029-035>040-094-270700-
NORTH CENTRAL NEBRASKA

CITY           SKY/WX    TMP DP  RH WIND       PRES   REMARKS
VALENTINE      LGT RAIN  55  49  80 N6        29.96F
6HR MIN TEMP:  55; 6HR MAX TEMP:  73; 6HR PCP:  0.14;

BROKEN BOW     CLOUDY    62  46  55 E9        29.91R
6HR MIN TEMP:  62; 6HR MAX TEMP:  73;

ORD            MOCLDY    58  45  62 E3        29.91S
6HR MIN TEMP:  58; 6HR MAX TEMP:  73;

$$

NEZ041-046>049-061>064-073>077-083>087-270700-
SOUTH CENTRAL NEBRASKA

CITY           SKY/WX    TMP DP  RH WIND       PRES   REMARKS
GRAND ISLAND   CLOUDY    59  48  67 NE8       29.92S
6HR MIN TEMP:  57; 6HR MAX TEMP:  77;

HASTINGS       CLOUDY    60  50  69 N7        29.91S
6HR MIN TEMP:  60; 6HR MAX TEMP:  78;

KEARNEY *      CLOUDY    61  46  59 NE9       29.91F
$$

NEZ011>018-030>034-042>045-270700-
NORTHEAST NEBRASKA

CITY           SKY/WX    TMP DP  RH WIND       PRES   REMARKS
TEKAMAH        CLOUDY    56  48  74 NW8       29.88R
6HR MIN TEMP:  56; 6HR MAX TEMP:  80;

$$

NEZ050>053-065>068-078-088>093-270700-
SOUTHEAST NEBRASKA

CITY           SKY/WX    TMP DP  RH WIND       PRES   REMARKS
LINCOLN        CLOUDY    63  51  65 N6        29.89R
6HR MIN TEMP:  59; 6HR MAX TEMP:  80;

OMAHA EPPLEY   CLOUDY    60  51  72 N6        29.87R
6HR MIN TEMP:  58; 6HR MAX TEMP:  81;

FALLS CITY     PTCLDY    68  52  56 CALM      29.84R
6HR MIN TEMP:  67; 6HR MAX TEMP:  81;

$$

NEZ044-045-051>053-067-270700-
OMAHA AREA

CITY           SKY/WX    TMP DP  RH WIND       PRES   REMARKS
OMAHA EPPLEY   CLOUDY    60  51  72 N6        29.87R
6HR MIN TEMP:  58; 6HR MAX TEMP:  81;

OFFUTT AFB     CLOUDY    64  49  59 N7        29.87R
$$



USA.gov is the U.S. government's official web portal to all federal, state and local government web resources and services.